Location: Bay Shore Mobile Home Park
(38.5762°N, 75.0841°W)
Time: 08:49:56
(UTC+00:00)

ARIANE 5 R/B - Pass Details

Date: 15 November 2025
Orbit: 746 x 792 km, 98.8° (Epoch: 05 December)

Event Time Altitude Azimuth Distance (km) Brightness Sun altitude
Rises 22:49:05 0° 172° (S) 3,179 5.8 -12.3°
Reaches altitude 10° 22:51:23 10° 175° (S) 2,256 5.0 -12.7°
Maximum altitude 22:56:18 67° 258° (WSW) 809 2.9 -13.7°
Drops below altitude 10° 23:01:16 10° 341° (NNW) 2,272 5.0 -14.6°
Sets 23:03:36 0° 344° (NNW) 3,204 5.8 -15.1°
